Tiempo cada hora Abbadia San Salvatore

Hoy, 29 Octubre, Jueves

Tiempo Temperatura Precipitaciones Viento Presión Humedad
00:00 +4°C° 0 mm 0 mps 673 mmHg 81%
01:00 +4°C° 0 mm 0 mps 673 mmHg 80%
02:00 +4°C° 0 mm 0 mps 672 mmHg 81%
03:00 +6°C° 0 mm 1 mps 672 mmHg 83%
04:00 +6°C° 0 mm 1 mps 672 mmHg 84%
05:00 +6°C° 0 mm 1 mps 672 mmHg 85%
06:00 +6°C° 0 mm 1 mps 672 mmHg 85%
07:00 +6°C° 0 mm 1 mps 673 mmHg 86%
08:00 +8°C° 0 mm 1 mps 673 mmHg 81%
09:00 +9°C° 0 mm 1 mps 674 mmHg 76%
10:00 +9°C° 0 mm 0 mps 674 mmHg 71%
11:00 +11°C° 0 mm 1 mps 674 mmHg 68%
12:00 +12°C° 0 mm 1 mps 675 mmHg 64%
13:00 +13°C° 0 mm 1 mps 675 mmHg 61%
14:00 +13°C° 0 mm 1 mps 675 mmHg 65%
15:00 +13°C° 0 mm 1 mps 675 mmHg 68%
16:00 +12°C° 0 mm 1 mps 675 mmHg 71%
17:00 +11°C° 0 mm 1 mps 675 mmHg 76%
18:00 +9°C° 0 mm 1 mps 675 mmHg 80%
19:00 +8°C° 0 mm 1 mps 674 mmHg 85%
20:00 +8°C° 0 mm 1 mps 675 mmHg 87%
21:00 +7°C° 0 mm 1 mps 675 mmHg 88%
22:00 +7°C° 0 mm 1 mps 675 mmHg 90%
23:00 +7°C° 0 mm 1 mps 675 mmHg 91%

Mañana, 30 Octubre, Viernes

Tiempo Temperatura Precipitaciones Viento Presión Humedad
00:00 +7°C° 0 mm 1 mps 675 mmHg 91%
01:00 +7°C° 0 mm 1 mps 675 mmHg 92%
02:00 +7°C° 0 mm 1 mps 675 mmHg 91%
03:00 +7°C° 0 mm 1 mps 675 mmHg 91%
04:00 +6°C° 0 mm 1 mps 675 mmHg 91%
05:00 +6°C° 0 mm 1 mps 675 mmHg 91%
06:00 +6°C° 0 mm 1 mps 675 mmHg 91%
07:00 +6°C° 0 mm 1 mps 675 mmHg 92%
08:00 +8°C° 0 mm 1 mps 676 mmHg 85%
09:00 +10°C° 0 mm 1 mps 677 mmHg 78%
10:00 +11°C° 0 mm 0 mps 678 mmHg 71%
11:00 +13°C° 0 mm 1 mps 678 mmHg 68%
12:00 +14°C° 0 mm 1 mps 678 mmHg 64%
13:00 +14°C° 0 mm 1 mps 678 mmHg 61%
14:00 +14°C° 0 mm 1 mps 678 mmHg 64%
15:00 +14°C° 0 mm 1 mps 678 mmHg 67%
16:00 +13°C° 0 mm 1 mps 678 mmHg 70%
17:00 +12°C° 0 mm 1 mps 678 mmHg 75%
18:00 +9°C° 0 mm 0 mps 677 mmHg 79%
19:00 +8°C° 0 mm 0 mps 677 mmHg 84%
20:00 +8°C° 0 mm 0 mps 677 mmHg 84%
21:00 +7°C° 0 mm 0 mps 677 mmHg 85%
22:00 +7°C° 0 mm 0 mps 677 mmHg 85%
23:00 +7°C° 0 mm 0 mps 677 mmHg 86%

Pasado mañana, 31 Octubre, Sábado

Tiempo Temperatura Precipitaciones Viento Presión Humedad
00:00 +8°C° 0 mm 1 mps 677 mmHg 86%
01:00 +7°C° 0 mm 1 mps 677 mmHg 86%
02:00 +7°C° 0 mm 1 mps 677 mmHg 87%
03:00 +7°C° 0 mm 1 mps 677 mmHg 87%
04:00 +7°C° 0 mm 1 mps 677 mmHg 87%
05:00 +7°C° 0 mm 1 mps 677 mmHg 87%
06:00 +5°C° 0 mm 0 mps 677 mmHg 87%
07:00 +5°C° 0 mm 0 mps 677 mmHg 87%
08:00 +7°C° 0 mm 0 mps 677 mmHg 80%
09:00 +9°C° 0 mm 0 mps 678 mmHg 73%
10:00 +12°C° 0 mm 0 mps 679 mmHg 66%
11:00 +12°C° 0 mm 0 mps 679 mmHg 63%
12:00 +14°C° 0 mm 1 mps 679 mmHg 60%
13:00 +15°C° 0 mm 1 mps 679 mmHg 57%
14:00 +15°C° 0 mm 1 mps 678 mmHg 61%
15:00 +14°C° 0 mm 1 mps 678 mmHg 66%
16:00 +14°C° 0 mm 1 mps 677 mmHg 70%
17:00 +12°C° 0 mm 1 mps 677 mmHg 76%
18:00 +9°C° 0 mm 0 mps 677 mmHg 82%
19:00 +8°C° 0 mm 0 mps 676 mmHg 88%
20:00 +8°C° 0 mm 0 mps 676 mmHg 88%
21:00 +7°C° 0 mm 0 mps 676 mmHg 89%
22:00 +7°C° 0 mm 0 mps 676 mmHg 89%
23:00 +7°C° 0 mm 0 mps 676 mmHg 89%

1 Noviembre, Domingo

Tiempo Temperatura Precipitaciones Viento Presión Humedad
00:00 +7°C° 0 mm 0 mps 676 mmHg 89%
01:00 +6°C° 0 mm 0 mps 676 mmHg 90%
02:00 +6°C° 0 mm 0 mps 676 mmHg 89%
03:00 +6°C° 0 mm 0 mps 676 mmHg 89%
04:00 +6°C° 0 mm 0 mps 675 mmHg 89%
05:00 +6°C° 0 mm 0 mps 675 mmHg 88%
06:00 +5°C° 0 mm 0 mps 675 mmHg 88%
07:00 +5°C° 0 mm 0 mps 675 mmHg 88%
08:00 +7°C° 0 mm 0 mps 676 mmHg 81%
09:00 +9°C° 0 mm 0 mps 676 mmHg 75%
10:00 +11°C° 0 mm 0 mps 677 mmHg 68%
11:00 +13°C° 0 mm 1 mps 677 mmHg 65%
12:00 +14°C° 0 mm 1 mps 677 mmHg 62%
13:00 +15°C° 0 mm 1 mps 678 mmHg 59%
14:00 +14°C° 0 mm 1 mps 677 mmHg 64%
15:00 +13°C° 0 mm 1 mps 677 mmHg 68%
16:00 +13°C° 0 mm 1 mps 677 mmHg 73%
17:00 +11°C° 0 mm 1 mps 676 mmHg 79%
18:00 +10°C° 0 mm 1 mps 676 mmHg 86%
19:00 +7°C° 0 mm 0 mps 676 mmHg 92%
20:00 +7°C° 0 mm 0 mps 676 mmHg 93%
21:00 +7°C° 0 mm 0 mps 676 mmHg 93%
22:00 +7°C° 0 mm 0 mps 676 mmHg 94%
23:00 +6°C° 0 mm 0 mps 676 mmHg 94%

2 Noviembre, Lunes

Tiempo Temperatura Precipitaciones Viento Presión Humedad
00:00 +6°C° 0 mm 0 mps 676 mmHg 94%
01:00 +6°C° 0 mm 0 mps 676 mmHg 94%
02:00 +6°C° 0 mm 0 mps 676 mmHg 94%
03:00 +6°C° 0 mm 0 mps 676 mmHg 94%
04:00 +6°C° 0 mm 0 mps 676 mmHg 94%
05:00 +6°C° 0 mm 0 mps 676 mmHg 94%
06:00 +6°C° 0 mm 0 mps 676 mmHg 93%
07:00 +6°C° 0 mm 0 mps 676 mmHg 93%
08:00 +8°C° 0 mm 1 mps 677 mmHg 88%
09:00 +10°C° 0 mm 1 mps 678 mmHg 83%
10:00 +11°C° 0 mm 1 mps 678 mmHg 77%
11:00 +12°C° 0 mm 1 mps 678 mmHg 75%
12:00 +12°C° 0 mm 1 mps 678 mmHg 73%
13:00 +13°C° 0 mm 1 mps 679 mmHg 71%
14:00 +13°C° 0 mm 1 mps 678 mmHg 74%
15:00 +12°C° 0 mm 1 mps 678 mmHg 77%
16:00 +12°C° 0 mm 1 mps 678 mmHg 79%
17:00 +11°C° 0 mm 1 mps 678 mmHg 83%
18:00 +10°C° 0 mm 1 mps 678 mmHg 86%
19:00 +10°C° 0 mm 1 mps 678 mmHg 89%
20:00 +9°C° 0 mm 1 mps 678 mmHg 90%
21:00 +9°C° 0 mm 1 mps 677 mmHg 91%
22:00 +8°C° 0 mm 1 mps 677 mmHg 92%
23:00 +7°C° 0 mm 0 mps 677 mmHg 92%

3 Noviembre, Martes

Tiempo Temperatura Precipitaciones Viento Presión Humedad
00:00 +6°C° 0 mm 0 mps 677 mmHg 93%
01:00 +6°C° 0 mm 0 mps 677 mmHg 93%
02:00 +6°C° 0 mm 0 mps 677 mmHg 93%
03:00 +6°C° 0 mm 0 mps 677 mmHg 93%
04:00 +6°C° 0 mm 0 mps 676 mmHg 94%
05:00 +6°C° 0 mm 0 mps 676 mmHg 94%
06:00 +6°C° 0 mm 0 mps 676 mmHg 93%
07:00 +5°C° 0 mm 0 mps 677 mmHg 93%
08:00 +7°C° 0 mm 0 mps 677 mmHg 88%
09:00 +9°C° 0 mm 0 mps 678 mmHg 82%
10:00 +11°C° 0 mm 0 mps 678 mmHg 76%
11:00 +12°C° 0 mm 0 mps 678 mmHg 72%
12:00 +13°C° 0 mm 1 mps 679 mmHg 69%
13:00 +14°C° 0 mm 1 mps 679 mmHg 65%
14:00 +14°C° 0 mm 1 mps 678 mmHg 69%
15:00 +13°C° 0 mm 1 mps 678 mmHg 72%
16:00 +13°C° 0 mm 1 mps 678 mmHg 75%
17:00 +11°C° 0 mm 1 mps 678 mmHg 81%
18:00 +10°C° 0 mm 1 mps 677 mmHg 87%
19:00 +7°C° 0 mm 0 mps 677 mmHg 92%
20:00 +7°C° 0 mm 0 mps 677 mmHg 92%
21:00 +7°C° 0 mm 0 mps 677 mmHg 92%
22:00 +7°C° 0 mm 0 mps 677 mmHg 93%
23:00 +6°C° 0 mm 0 mps 677 mmHg 93%
Mostrar más

Necesitamos Su Consentimiento

Meteoprog y nuestros Proveedores de Servicios pueden almacenar y acceder a sus datos personales como cookies, identificadores de dispositivo u otras tecnologías similares de su dispositivo y procesar dichos datos para personalizar contenido y anuncios, además de ofrecer funciones de redes sociales y analizar el tráfico.

  • Almacenar y/o acceder a información en su dispositivo

    Se puede almacenar o acceder a cookies, identificadores de dispositivo u otra información de su dispositivo para los fines anteriormente indicados.

  • Anuncios y contenido personalizados, medición de anuncios y contenido, percepciones del público, y desarrollo de productos

    Los anuncios y el contenido pueden personalizarse en base a su perfil. Se pueden añadir más datos para personalizar mejor los anuncios y contenidos. Se puede medir el rendimiento de los anuncios y contenidos. Se puede obtener la percepción sobre el público que ha visto los anuncios y contenidos. Dichos datos pueden usarse para desarrollar o mejorar la experiencia del usuario, sistemas y software.

Al hacer clic en ‘Estoy De Acuerdo’ usted permitirá el uso de las cookies, identificadores de dispositivo, balizas web u otras tecnologías similares indicadas. Su configuración puede cambiarse desde el navegador de su dispositivo.

Para ciertos fines, los intereses legítimos pueden ser considerados por encima del consentimiento. Puede leer más sobre ello en nuestra Política de Privacidad y Cookies.